Погода в Ваде

Россия / Республика Коми     61°35′12″N   54°59′09″E
темп.,
°C
ветер,
м/с
пор.,
м/с
влажн.,
%
обл.,
%
осадки,
мм/ч
давл.,
гПа
погр.,
м
14 мая, пт
пт1400:00+15ююз246648 0.0 102170
03:00+15ююз2670100 0.0 1020105
06:00+19юз4115899 0.0 1019422
09:00+24юз484496 0.0 10191002
12:00+26зюз5123858 0.0 10182476
15:00+27юз6103663 0.0 10163139
18:00+24юз51047100 0.0 1015782
21:00+17юз3981100 2.2 1016168
15 мая, сб
сб1500:00+16юз2384100 0.0 101555
03:00+15ю2291100 3.9 101527
06:00+17зюз368018 0.0 1015402
09:00+21з355798 0.0 10151086
12:00+24з4636100 0.0 10152090
15:00+22зсз483996 0.0 10151527
18:00+18ссз2561100 0.0 1015319
21:00+14зюз1178100 0.2 101510
16 мая, вс
вс1600:00+14ююз2282100 0.2 101541
03:00+13ю2393100 0.6 101476
06:00+16ю2482100 0.1 1013237
09:00+21юз476614 0.3 1012845
12:00+26юз6104384 0.0 10112246
15:00+26зюз41041100 0.0 10102779
18:00+18с257671 2.2 100998
21:00+16ю3791100 5.8 1010134
17 мая, пн
пн1700:00+16ююз4118999 1.5 1010304
03:00+13юз311911 1.5 1010302
06:00+16юз4118179 0.1 1010706
09:00+19зюз586299 0.5 10101491
12:00+19зюз5967100 1.3 10111521
15:00+18з4969100 2.1 10121119
18:00+17зюз3870100 0.5 1012504
21:00+13сз269086 0.8 1013140
18 мая, вт
вт1800:00+11зсз279350 0.0 1014250
03:00+11зсз3790100 0.0 1016715
06:00+12ссз358243 0.1 1017564
09:00+13с346990 0.1 1019907
12:00+17с235375 0.0 10191440
15:00+19св134310 0.0 10201744
18:00+17вюв24550 0.0 1020188
21:00+11вюв26830 0.0 1022126